Kars, Turkey

12:17 AM +03 on October 19, 2017 (GMT +0300)
Kars

Weather History for LTCF - April, 2013

Change the Weather History Date:

Monday, April 1, 2013

  Actual Average Record
Temperature  
Mean Temperature 42 °F -  
Max Temperature 61 °F 52 °F - ()
Min Temperature 23 °F 32 °F - ()
Degree Days  
Heating Degree Days 23    
Moisture  
Dew Point 27 °F    
Average Humidity 53    
Maximum Humidity 93    
Minimum Humidity 16    
Precipitation  
Precipitation 0.00 in 0.06 in - ()
Sea Level Pressure  
Sea Level Pressure 30.18 in    
Wind  
Wind Speed 3 mph ()    
Max Wind Speed 18 mph    
Max Gust Speed -    
Visibility 6.1 miles    
Events      
T = Trace of Precipitation, MM = Missing Value Source: Averaged Metar Reports

Daily Weather History Graph

Daily Weather History Graph

Search for Another Location

Airport or City:

Trip Planner

Search our weather history database for the weather conditions in past years. The results will help you decide how hot, cold, wet, or windy it might be!

Date:

Astronomy

Apr. 01, 2013 Rise Set
Actual Time 5:51 AM EEST 6:32 PM EEST
Civil Twilight 5:23 AM EEST 6:59 PM EEST
Nautical Twilight 4:51 AM EEST 7:32 PM EEST
Astronomical Twilight 4:17 AM EEST 8:05 PM EEST
Moon No Moon Rise 9:14 AM EEST (4/1)
Length of Visible Light 13h 35m
Length of Day
12h 40m
Waning Gibbous, 70% of the Moon is Illuminated
Apr 1
Waning Gibbous
Apr 3
Last Quarter
Apr 10
New
Apr 18
First Quarter
Apr 25
Full

Hourly Weather History & Observations

Time (EEST) Temp. Windchill Dew Point Humidity Pressure Visibility Wind Dir Wind Speed Gust Speed Precip Events Conditions
12:50 AM 32.0 °F - 24.8 °F 75% 30.27 in - Calm Calm - N/A   Clear
1:50 AM 30.2 °F - 26.6 °F 86% 30.24 in - Calm Calm - N/A   Clear
3:00 AM 28 °F - 26 °F 86%  in 6 mi Calm Calm - -  
3:50 AM 26.6 °F - 23.0 °F 86% 30.24 in - Calm Calm - N/A   Clear
4:50 AM 24.8 °F 20.5 °F 23.0 °F 93% 30.24 in - WNW 3.5 mph - N/A   Clear
5:50 AM 26.6 °F - 24.8 °F 93% 30.24 in - WNW 2.3 mph - N/A   Clear
6:50 AM 28.4 °F - 24.8 °F 86% 30.24 in - Calm Calm - N/A   Clear
7:50 AM 35.6 °F - 28.4 °F 75% 30.24 in - Calm Calm - N/A   Clear
8:50 AM 44.6 °F - 30.2 °F 57% 30.24 in - Calm Calm - N/A   Clear
9:00 AM 44 °F - 29 °F 44%  in 6 mi Calm Calm - -  
9:50 AM 50.0 °F - 28.4 °F 43% 30.24 in - Variable 1.2 mph - N/A   Clear
10:50 AM 55.4 °F - 26.6 °F 33% 30.21 in 6.2 mi Variable 2.3 mph - N/A   Partly Cloudy
11:50 AM 57.2 °F - 28.4 °F 33% 30.18 in - Variable 2.3 mph - N/A   Clear
12:50 PM 59.0 °F - 26.6 °F 29% 30.18 in - South 12.7 mph - N/A   Clear
1:50 PM 60.8 °F - 26.6 °F 27% 30.15 in - SSW 10.4 mph - N/A   Clear
2:50 PM 60.8 °F - 26.6 °F 27% 30.15 in - South 13.8 mph - N/A   Clear
3:00 PM 60 °F - 26 °F 16%  in 6 mi South 13.8 mph - -   Clear
3:50 PM 59.0 °F - 26.6 °F 29% 30.12 in - South 11.5 mph - N/A   Clear
4:50 PM 59.0 °F - 26.6 °F 29% 30.12 in - SSE 18.4 mph - N/A   Clear
5:50 PM 55.4 °F - 28.4 °F 36% 30.12 in 6.2 mi South 16.1 mph - N/A   Mostly Cloudy
6:50 PM 51.8 °F - 28.4 °F 41% 30.12 in 6.2 mi SSE 12.7 mph - N/A   Mostly Cloudy
7:50 PM 50.0 °F - 28.4 °F 43% 30.12 in 6.2 mi South 9.2 mph - N/A   Mostly Cloudy
8:50 PM 48.2 °F - 28.4 °F 46% 30.12 in 6.2 mi Variable 2.3 mph - N/A   Scattered Clouds
9:00 PM 49 °F - 28 °F 31%  in 6 mi WSW 2.3 mph - -   Partly Cloudy
9:50 PM 42.8 °F 39.3 °F 28.4 °F 57% 30.12 in 6.2 mi NW 5.8 mph - N/A   Mostly Cloudy
10:50 PM 41.0 °F - 28.4 °F 61% 30.12 in 6.2 mi Calm Calm - N/A   Scattered Clouds
11:50 PM 39.2 °F 35.0 °F 26.6 °F 61% 30.12 in 6.2 mi North 5.8 mph - N/A   Scattered Clouds